Regional Weather Roundup
Issued by NWS

Home | Current Version | Previous Version | Graphics & Text | Print | Product List | Glossary On
Versions: 1 2 3 4 5 6 7 8 9 10 11 12 13 14 15 16 17 18 19 20 21 22 23 24 25 26 27 28 29 30 31 32 33 34 35 36 37 38 39 40 41 42 43 44 45 46 47 48 49 50
130
ASUS45 KPSR 140910
RWRAZ

ARIZONA HOURLY REGIONAL WEATHER ROUNDUP
NATIONAL WEATHER SERVICE PHOENIX AZ
200 AM MST SUN FEB 14 2016

NOTE: FAIR INDICATES FEW OR NO CLOUDS BELOW 12,000 FEET WITH NO
SIGNIFICANT WEATHER AND/OR OBSTRUCTIONS TO VISIBILITY.

AZZ001>003-036-141000-
NORTHWEST ARIZONA

CITY           SKY/WX    TMP DP  RH WIND       PRES   REMARKS
BULLHEAD CITY  CLEAR     61  28  29 CALM      30.06S
KINGMAN        CLEAR     46  22  38 E8        30.15R
$$

AZZ004>008-015-016-018-141000-
NORTH CENTRAL ARIZONA

CITY           SKY/WX    TMP DP  RH WIND       PRES   REMARKS
GRAND CANYON   PTCLDY    25  18  74 E3        30.24F
WILLIAMS       PTCLDY    28  18  64 S10       30.28S WCI  19
PRESCOTT       CLEAR     37  19  48 S5        30.18S WCI  33
FLAGSTAFF      MOCLDY    26  16  65 CALM      30.24S
PAYSON         CLEAR     45  21  39 CALM      30.15S
PAGE           CLEAR     43  32  65 CALM      30.18S
$$

AZZ009>014-017-141000-
NORTHEAST ARIZONA

CITY           SKY/WX    TMP DP  RH WIND       PRES   REMARKS
WINSLOW        MOCLDY    35  17  47 W5        30.20R WCI  31
SAINT JOHNS    CLOUDY    36  13  38 S8        30.15F WCI  30
WINDOW ROCK    PTCLDY    32   0  25 CALM      30.21R
SHOW LOW       PTCLDY    28  16  59 CALM      30.20S
$$

AZZ023-141000-
GREATER PHOENIX AREA

CITY           SKY/WX    TMP DP  RH WIND       PRES   REMARKS
PHOENIX        CLEAR     61  34  36 E3        29.96S
BUCKEYE        CLEAR     59  23  25 N10       30.00F
LUKE AFB       CLEAR     54  38  54 CALM      29.97S
DEER VALLEY    CLEAR     56  28  34 CALM      29.98S
SCOTTSDALE     CLEAR     57  32  38 NW3       30.00R
MESA-GATEWAY   CLEAR     52  32  46 E8        30.00R
$$

AZZ027-028-141000-
SOUTHWEST MARICOPA COUNTY AND PINAL COUNTY

CITY           SKY/WX    TMP DP  RH WIND       PRES   REMARKS
CASA GRANDE    PTCLDY    48  27  43 NE3       30.00S
GILA BEND      FAIR      54  27  35 SE3       29.98R
$$

AZZ503-504-507>509-141000-
SOUTHEAST ARIZONA

CITY           SKY/WX    TMP DP  RH WIND       PRES   REMARKS
TUCSON         PTCLDY    53  23  31 S6        30.07R
DAVIS-MONTHAN  MOCLDY    49  25  39 SE6       30.05R
NOGALES        MOCLDY    46  19  34 E6        30.09F
SIERRA VISTA   MOCLDY    53   9  17 W10       30.12F
DOUGLAS        MOCLDY    45  16  31 NW6       30.09F
SAFFORD        PTCLDY    45  19  35 E6        30.04S
$$

AZZ020-021-025-026-031-141000-
SOUTHWEST ARIZONA

CITY           SKY/WX    TMP DP  RH WIND       PRES   REMARKS
YUMA           NOT AVBL
$$

CAZ031-033-041-043-047-048-061-141000-
SOUTHERN CALIFORNIA

CITY           SKY/WX    TMP DP  RH WIND       PRES   REMARKS
DOWNTOWN L.A.  CLEAR     53  50  89 CALM      30.05S FOG
L.A. AIRPORT   FOG       51  49  92 W3        30.06S VSB 1
SAN DIEGO      MOCLDY    58  53  84 N3        30.08S FOG
BURBANK        CLEAR     56  33  42 N3        30.05F
ONTARIO        CLEAR     53  43  68 NE3       30.06F HAZE
RIVERSIDE      CLEAR     54  41  61 CALM      30.07S
PALM SPRINGS   CLEAR     68  31  25 NW7       30.03F
EL CENTRO NAS  CLEAR     56  23  27 W10       30.01S
IMPERIAL       CLEAR     59  27  29 W5        29.98S
BLYTHE         CLEAR     58  23  26 NW6       30.01S
NEEDLES        CLEAR     58  23  26 CALM      30.04S
$$

NVZ020-UTZ003-141000-
SOUTHERN NEVADA-UTAH

CITY           SKY/WX    TMP DP  RH WIND       PRES   REMARKS
LAS VEGAS      CLEAR     53  22  29 SW3       30.11R
SALT LAKE CITY FOG       29  29 100 NW3       30.27F VSB 1/4
$$

NMZ009-TXZ055-141000-
NEW MEXICO-WEST TEXAS

CITY           SKY/WX    TMP DP  RH WIND       PRES   REMARKS
ALBUQUERQUE    CLOUDY    45  13  27 CALM      30.11R
EL PASO        MOCLDY    47  15  27 S5        30.03F
$$


........................KEY........................
SKY/WX - SKY CONDITION/WEATHER
TMP    - TEMPERATURE IN FAHRENHEIT
DP     - DEW POINT IN FAHRENHEIT
RH     - RELATIVE HUMIDITY IN PERCENT
WIND   - DIRECTION AND SPEED IN MILES PER HOUR (MPH)
VRB    - VARIABLE WIND DIRECTION
PRES   - MEAN SEA LEVEL PRESSURE IN INCHES OF MERCURY
         F - FALLING PRESSURE   R - RISING PRESSURE
         S - STEADY PRESSURE
VSB    - VISIBILITY IN MILES
HX     - HEAT INDEX IN FAHRENHEIT
WCI    - WIND CHILL INDEX IN FAHRENHEIT
TC     - TEMPERATURE IN CELSIUS WHICH IS ALSO KNOWN AS
         TEMPERATURE IN CENTIGRADE
AFB    - AIR FORCE BASE
         LUKE AFB IS LUKE AIR FORCE BASE
         DAVIS-MONTHAN IS DAVIS-MONTHAN AIR FORCE BASE
NAS    - NAVAL AIR STATION
         EL CENTRO NAS IS EL CENTRO NAVAL AIR STATION
N/A    - NOT AVAILABLE





USA.gov is the U.S. government's official web portal to all federal, state and local government web resources and services.